User: anonymous   Login
Location: B?jaj?g
(11.7167°N, 92.6667°E)
Time: 01:47:28
(UTC+00:00)
Language:

SL-16 R/B - Orbit

View from above orbital plane
View from above orbital plane
View from above satellite
View from above satellite

Ground track
Ground track

The orbit data is extracted from the following two-line orbital elements,

1 31793U 07029B   20334.57133578  .00000106  00000-0  80242-4 0  9999
2 31793  70.9770 259.5041 0002231 280.8551 251.8759 14.14442712693070
Epoch (UTC): 29 November 2020 13:42:43
Eccentricity: 0.0002231
inclination: 70.9770°
perigee height: 842 km
apogee height: 846 km
right ascension of ascending node: 259.5041°
argument of perigee: 280.8551°
revolutions per day: 14.14442712
mean anomaly at epoch: 251.8759°
orbit number at epoch: 69307

The dashed part of the orbit path shows where the satellite is in the earth's shadow,  

DLR